Location: Unspecified
(51.6244°N, 7.4094°E)
Time: 01:00:06
(UTC+01:00)

ISS - Visible Passes

Search period start: 19 December 2018 00:00
Search period end: 29 December 2018 00:00
Orbit: 401 x 408 km, 51.6° (Epoch: 19 December)

Date Brightness Start Highest point End Pass type
(mag) Time Alt. Az. Time Alt. Az. Time Alt. Az.
23 Dec -0.8 07:48:09 10° SSW 07:50:40 20° SE 07:53:11 10° E visible
24 Dec -0.6 06:56:59 10° S 06:58:40 13° SE 07:00:22 10° ESE visible
25 Dec -2.0 07:39:25 10° SW 07:42:27 34° SSE 07:45:28 10° E visible
26 Dec -1.5 06:47:38 10° SSW 06:50:20 24° SSE 06:53:02 10° E visible
27 Dec -1.0 05:56:44 12° S 05:58:16 16° SE 06:00:21 10° ESE visible
27 Dec -3.1 07:31:01 10° WSW 07:34:15 55° SSE 07:37:29 10° E visible
28 Dec -2.6 06:39:54 17° SW 06:42:03 39° SSE 06:45:10 10° E visible
